Tracking 35237 objects as of 5-Sep-2026
HD Live streaming from Space Station
objects crossing your sky now

STARLINK-3336

Track STARLINK-3336 now!
10-day predictions
STARLINK-3336 is classified as:


NORAD ID: 50818
Int'l Code: 2022-001R
Launch date: January 6, 2022
Source: United States (US)
Launch site: AIR FORCE EASTERN TEST RANGE (AFETR)
Your satellite tracking list
Your tracking list is empty




NASA's NSSDC Master Catalog

Two Line Element Set (TLE):
1 50818U 22001R   26246.83766602  .00001178  00000-0  45984-4 0  9996
2 50818  53.1605  79.9518 0001206  98.5099 261.6041 15.34397876257425
Source of the keplerian elements: AFSPC